TimeEST,TemperatureF,Dew PointF,Humidity,Sea Level PressureIn,VisibilityMPH,Wind Direction,Wind SpeedMPH,Gust SpeedMPH,PrecipitationIn,Events,Conditions,WindDirDegrees,DateUTC
12:15 AM,39.2,26.6,61,30.09,10.0,SW,6.9,-,N/A,,Clear,230,2013-01-24 05:15:00
12:35 AM,39.2,26.6,61,30.08,10.0,SW,5.8,-,N/A,,Clear,230,2013-01-24 05:35:00
12:55 AM,39.2,26.6,61,30.08,10.0,SW,5.8,-,N/A,,Clear,230,2013-01-24 05:55:00
1:15 AM,39.2,26.6,61,30.07,10.0,SW,4.6,-,N/A,,Clear,220,2013-01-24 06:15:00
1:55 AM,39.2,26.6,61,30.05,10.0,SW,4.6,-,N/A,,Clear,220,2013-01-24 06:55:00
2:15 AM,39.2,26.6,61,30.04,10.0,SW,3.5,-,N/A,,Clear,220,2013-01-24 07:15:00
2:35 AM,39.2,26.6,61,30.03,10.0,SW,4.6,-,N/A,,Clear,230,2013-01-24 07:35:00
2:55 AM,39.2,28.4,65,30.03,10.0,SW,4.6,-,N/A,,Clear,220,2013-01-24 07:55:00
3:15 AM,39.2,28.4,65,30.02,10.0,SW,4.6,-,N/A,,Clear,230,2013-01-24 08:15:00
3:35 AM,37.4,28.4,70,30.02,10.0,SW,3.5,-,N/A,,Clear,230,2013-01-24 08:35:00
3:55 AM,35.6,28.4,75,30.01,10.0,Calm,Calm,-,N/A,,Clear,0,2013-01-24 08:55:00
4:15 AM,37.4,30.2,75,30.02,10.0,WSW,5.8,-,N/A,,Clear,250,2013-01-24 09:15:00
4:35 AM,39.2,32.0,75,30.01,10.0,WSW,5.8,-,N/A,,Clear,240,2013-01-24 09:35:00
4:55 AM,39.2,32.0,75,30.01,10.0,WSW,5.8,-,N/A,,Clear,250,2013-01-24 09:55:00
5:15 AM,39.2,32.0,75,30.02,10.0,WSW,5.8,-,N/A,,Clear,250,2013-01-24 10:15:00
5:35 AM,39.2,32.0,75,30.02,10.0,WSW,5.8,-,N/A,,Clear,240,2013-01-24 10:35:00
5:55 AM,39.2,32.0,75,30.02,10.0,WSW,5.8,-,N/A,,Clear,240,2013-01-24 10:55:00
6:15 AM,39.2,33.8,81,30.03,10.0,West,3.5,-,N/A,,Clear,260,2013-01-24 11:15:00
6:35 AM,37.4,33.8,87,30.04,10.0,Calm,Calm,-,N/A,,Clear,0,2013-01-24 11:35:00
6:55 AM,37.4,35.6,93,30.04,10.0,Calm,Calm,-,N/A,,Clear,0,2013-01-24 11:55:00
7:15 AM,37.4,33.8,87,30.06,10.0,WSW,4.6,-,N/A,,Clear,240,2013-01-24 12:15:00
7:35 AM,37.4,33.8,87,30.07,10.0,Calm,Calm,-,N/A,,Clear,0,2013-01-24 12:35:00
7:55 AM,32.0,32.0,100,30.08,10.0,Calm,Calm,-,N/A,,Clear,0,2013-01-24 12:55:00
8:15 AM,33.8,33.8,100,30.09,10.0,Calm,Calm,-,N/A,,Clear,0,2013-01-24 13:15:00
8:35 AM,37.4,37.4,100,30.10,10.0,West,3.5,-,N/A,,Clear,280,2013-01-24 13:35:00
8:55 AM,44.6,37.4,76,30.10,10.0,WNW,4.6,-,N/A,,Clear,290,2013-01-24 13:55:00
9:15 AM,46.4,37.4,71,30.12,10.0,West,6.9,-,N/A,,Clear,280,2013-01-24 14:15:00
9:35 AM,48.2,37.4,66,30.14,10.0,WNW,4.6,-,N/A,,Clear,300,2013-01-24 14:35:00
9:55 AM,48.2,35.6,62,30.15,10.0,NW,9.2,-,N/A,,Clear,310,2013-01-24 14:55:00
10:15 AM,50.0,30.2,47,30.16,10.0,NW,10.4,17.3,N/A,,Clear,320,2013-01-24 15:15:00
10:35 AM,51.8,24.8,35,30.17,10.0,WNW,12.7,19.6,N/A,,Clear,290,2013-01-24 15:35:00
10:55 AM,51.8,24.8,35,30.17,10.0,North,10.4,18.4,N/A,,Clear,360,2013-01-24 15:55:00
11:15 AM,53.6,28.4,38,30.19,10.0,North,11.5,17.3,N/A,,Clear,360,2013-01-24 16:15:00
11:35 AM,53.6,26.6,35,30.19,10.0,North,9.2,-,N/A,,Clear,10,2013-01-24 16:35:00
11:55 AM,53.6,17.6,24,30.20,10.0,North,15.0,-,N/A,,Clear,360,2013-01-24 16:55:00
12:15 PM,53.6,15.8,22,30.20,10.0,North,10.4,18.4,N/A,,Clear,350,2013-01-24 17:15:00
12:35 PM,53.6,14.0,21,30.21,10.0,NNE,10.4,17.3,N/A,,Clear,20,2013-01-24 17:35:00
12:55 PM,53.6,23.0,30,30.21,10.0,NNE,10.4,17.3,N/A,,Clear,30,2013-01-24 17:55:00
1:15 PM,50.0,23.0,35,30.22,10.0,NNE,16.1,25.3,N/A,,Clear,30,2013-01-24 18:15:00
1:35 PM,50.0,23.0,35,30.23,10.0,NNE,12.7,18.4,N/A,,Clear,20,2013-01-24 18:35:00
2:15 PM,50.0,17.6,28,30.25,10.0,NE,6.9,19.6,N/A,,Clear,50,2013-01-24 19:15:00
2:35 PM,50.0,15.8,26,30.25,10.0,NNE,12.7,21.9,N/A,,Clear,30,2013-01-24 19:35:00
2:55 PM,48.2,15.8,27,30.26,10.0,NE,13.8,20.7,N/A,,Clear,40,2013-01-24 19:55:00
3:15 PM,46.4,14.0,27,30.27,10.0,NNE,15.0,19.6,N/A,,Clear,30,2013-01-24 20:15:00
3:35 PM,46.4,14.0,27,30.28,10.0,NNE,18.4,24.2,N/A,,Clear,30,2013-01-24 20:35:00
3:55 PM,44.6,14.0,29,30.30,10.0,NNE,15.0,21.9,N/A,,Clear,30,2013-01-24 20:55:00
4:15 PM,44.6,14.0,29,30.31,10.0,NE,11.5,20.7,N/A,,Clear,50,2013-01-24 21:15:00
4:35 PM,42.8,10.4,27,30.32,10.0,ENE,6.9,18.4,N/A,,Clear,60,2013-01-24 21:35:00
5:15 PM,39.2,8.6,28,30.35,10.0,NE,10.4,16.1,N/A,,Clear,50,2013-01-24 22:15:00
5:35 PM,37.4,8.6,30,30.36,10.0,NE,10.4,-,N/A,,Clear,40,2013-01-24 22:35:00
5:55 PM,37.4,6.8,28,30.37,10.0,NNE,13.8,18.4,N/A,,Clear,20,2013-01-24 22:55:00
6:35 PM,35.6,3.2,26,30.40,10.0,NE,9.2,-,N/A,,Clear,40,2013-01-24 23:35:00
6:55 PM,33.8,3.2,28,30.41,10.0,NE,8.1,-,N/A,,Clear,40,2013-01-24 23:55:00
7:15 PM,32.0,3.2,30,30.41,10.0,NE,8.1,-,N/A,,Clear,40,2013-01-25 00:15:00
7:35 PM,32.0,5.0,32,30.43,10.0,ENE,3.5,-,N/A,,Clear,70,2013-01-25 00:35:00
8:15 PM,32.0,5.0,32,30.45,10.0,ENE,3.5,-,N/A,,Clear,70,2013-01-25 01:15:00
8:35 PM,32.0,3.2,30,30.45,10.0,Calm,Calm,-,N/A,,Clear,0,2013-01-25 01:35:00
8:55 PM,32.0,1.4,27,30.46,10.0,East,3.5,-,N/A,,Clear,80,2013-01-25 01:55:00
9:35 PM,28.4,3.2,34,30.48,10.0,Calm,Calm,-,N/A,,Clear,0,2013-01-25 02:35:00
9:55 PM,28.4,3.2,34,30.48,10.0,East,3.5,-,N/A,,Clear,80,2013-01-25 02:55:00
10:15 PM,28.4,3.2,34,30.48,10.0,Calm,Calm,-,N/A,,Clear,0,2013-01-25 03:15:00
10:35 PM,28.4,5.0,37,30.48,10.0,Calm,Calm,-,N/A,,Clear,0,2013-01-25 03:35:00
10:55 PM,28.4,5.0,37,30.49,10.0,Calm,Calm,-,N/A,,Clear,0,2013-01-25 03:55:00
11:15 PM,28.4,5.0,37,30.49,10.0,Calm,Calm,-,N/A,,Clear,0,2013-01-25 04:15:00
11:35 PM,26.6,5.0,40,30.50,10.0,Calm,Calm,-,N/A,,Clear,0,2013-01-25 04:35:00
11:55 PM,26.6,5.0,40,30.50,10.0,Calm,Calm,-,N/A,,Clear,0,2013-01-25 04:55:00